EW1940 Weather Reports


Display with metric or nautical units.
time (UTC)temp
F
wind
direction
speed
MPH
gust
MPH
rain 1hr
in
rain 24hr
in
rain mn
in
humidity
%
barometer
mb
20260509100015 70 90 3.0 8.0 0.00 0.00 0.00 54 1016.9
20260509095015 70 45 4.0 10.0 0.00 0.00 0.00 53 1017.0
20260509094015 70 68 4.0 8.0 0.00 0.00 0.00 54 1017.0
20260509093037 69 90 4.0 12.0 0.00 0.00 0.00 55 1017.0
20260509092017 69 45 4.0 9.0 0.00 0.00 0.00 54 1017.1
20260509091015 69 90 2.0 8.0 0.00 0.00 0.00 55 1017.1
20260509090015 69 113 4.0 9.0 0.00 0.00 0.00 55 1017.1
20260509085017 69 45 3.0 8.0 0.00 0.00 0.00 56 1017.2
20260509084017 68 45 3.0 8.0 0.00 0.00 0.00 56 1017.2
20260509083035 68 90 3.0 10.0 0.00 0.00 0.00 59 1017.3
20260509082037 67 90 3.0 9.0 0.00 0.00 0.00 60 1017.3
20260509081035 66 90 3.0 6.0 0.00 0.00 0.00 63 1017.4
20260509080016 65 45 3.0 8.0 0.00 0.00 0.00 65 1017.4
20260509075021 63 90 2.0 5.0 0.00 0.00 0.00 67 1017.4
20260509074039 63 68 3.0 5.0 0.00 0.00 0.00 67 1017.3
20260509073039 62 90 3.0 6.0 0.00 0.01 0.00 69 1017.3
20260509072019 61 90 2.0 8.0 0.00 0.01 0.00 71 1017.3
20260509071018 59 90 2.0 4.0 0.00 0.02 0.00 74 1017.2
20260509070017 58 45 3.0 7.0 0.00 0.02 0.00 76 1017.3
20260509065017 56 45 2.0 5.0 0.00 0.02 0.00 79 1017.2
20260509064019 54 45 3.0 5.0 0.00 0.02 0.00 81 1017.2
20260509063017 53 68 2.0 4.0 0.00 0.02 0.00 83 1017.1
20260509062040 52 23 2.0 7.0 0.00 0.02 0.00 84 1017.1
20260509061019 51 68 2.0 4.0 0.00 0.02 0.00 85 1017.0
20260509060037 50 45 3.0 5.0 0.00 0.02 0.00 85 1017.0
20260509055019 50 45 2.0 4.0 0.00 0.02 0.00 85 1016.9
20260509054037 49 45 2.0 4.0 0.00 0.02 0.00 85 1016.9
20260509053038 49 45 1.0 3.0 0.00 0.02 0.00 86 1016.9
20260509052017 48 45 1.0 3.0 0.00 0.02 0.00 85 1016.9
20260509051017 48 68 2.0 4.0 0.00 0.02 0.00 85 1016.7
20260509050017 48 45 2.0 4.0 0.00 0.02 0.00 85 1016.7
20260509045017 48 45 1.0 3.0 0.00 0.02 0.00 85 1016.8
20260509044019 48 45 2.0 5.0 0.00 0.02 0.00 85 1016.8
20260509043038 48 45 2.0 4.0 0.00 0.02 0.00 84 1016.8
20260509042037 48 68 1.0 3.0 0.00 0.02 0.00 84 1016.9
20260509041039 48 45 1.0 3.0 0.00 0.02 0.00 84 1017.0
20260509040038 48 68 1.0 4.0 0.00 0.02 0.00 84 1017.0
20260509035017 48 45 2.0 4.0 0.00 0.02 0.00 84 1016.9
20260509034018 48 68 1.0 4.0 0.00 0.02 0.00 85 1016.9
20260509033019 48 45 1.0 3.0 0.00 0.02 0.00 85 1016.9
20260509032017 48 45 2.0 4.0 0.00 0.02 0.00 85 1016.9
20260509031017 48 45 2.0 4.0 0.00 0.02 0.00 85 1016.9
20260509030019 48 45 2.0 4.0 0.00 0.02 0.00 84 1017.1
20260509025018 48 45 1.0 2.0 0.00 0.02 0.00 84 1017.1
20260509024038 48 45 1.0 3.0 0.00 0.02 0.00 84 1017.1
20260509023017 48 45 1.0 3.0 0.00 0.02 0.00 84 1017.1
20260509022018 48 45 1.0 4.0 0.00 0.02 0.00 83 1017.0
20260509021017 48 45 2.0 4.0 0.00 0.02 0.00 83 1016.9
20260509020019 48 45 2.0 4.0 0.00 0.02 0.00 83 1016.9
20260509015017 48 45 2.0 4.0 0.00 0.02 0.00 83 1016.9
20260509014017 48 45 3.0 7.0 0.00 0.02 0.00 84 1017.0
20260509013018 48 45 2.0 4.0 0.00 0.02 0.00 84 1017.0
20260509012017 48 45 1.0 3.0 0.00 0.02 0.00 84 1017.1
20260509011017 48 45 1.0 4.0 0.00 0.02 0.00 83 1017.1
20260509010017 49 45 2.0 4.0 0.00 0.02 0.00 83 1017.2
20260509005017 49 45 1.0 3.0 0.00 0.02 0.00 83 1017.3
20260509004018 49 45 1.0 3.0 0.00 0.02 0.00 83 1017.3
20260509003018 49 45 1.0 3.0 0.00 0.02 0.00 82 1017.4
20260509002018 49 45 1.0 3.0 0.00 0.02 0.00 82 1017.4
20260509001018 49 45 1.0 3.0 0.00 0.02 0.00 82 1017.4
20260509000017 50 45 2.0 3.0 0.00 0.02 0.00 82 1017.3
20260508235017 50 45 2.0 4.0 0.00 0.02 0.00 82 1017.3
20260508234018 50 45 2.0 4.0 0.00 0.02 0.00 82 1017.2
20260508233018 50 0.0 0.0 0.00 0.02 0.00 82 1017.3
20260508232037 50 0.0 0.0 0.00 0.02 0.00 82 1017.5
20260508231018 50 0.0 0.0 0.00 0.02 0.00 82 1017.5
20260508230017 50 68 1.0 3.0 0.00 0.02 0.02 83 1017.6
20260508225016 50 68 1.0 3.0 0.00 0.02 0.02 83 1017.5
20260508224016 50 0.0 1.0 0.00 0.02 0.02 84 1017.5
20260508223017 50 68 1.0 3.0 0.00 0.02 0.02 84 1017.5
20260508222017 50 68 1.0 3.0 0.00 0.02 0.02 84 1017.5
20260508221017 50 45 2.0 4.0 0.00 0.02 0.02 84 1017.5
20260508220018 51 45 1.0 3.0 0.00 0.02 0.02 84 1017.5
20260508215058 51 0.0 0.0 0.00 0.02 0.02 84 1017.5
20260508214017 51 0.0 0.0 0.00 0.02 0.02 83 1017.6
20260508213016 52 0.0 0.0 0.00 0.02 0.02 82 1017.6
20260508212016 52 0.0 0.0 0.00 0.02 0.02 81 1017.4
20260508211018 52 0.0 0.0 0.00 0.02 0.02 80 1017.4
20260508210016 53 0.0 0.0 0.00 0.02 0.02 77 1017.4
20260508205016 53 0.0 0.0 0.00 0.02 0.02 76 1017.4
20260508204018 54 0.0 0.0 0.00 0.02 0.02 75 1017.3
20260508203018 54 0.0 0.0 0.00 0.02 0.02 75 1017.3
20260508202018 55 0.0 0.0 0.00 0.02 0.02 74 1017.2
20260508201016 55 0.0 0.0 0.00 0.02 0.02 73 1017.1
20260508200016 56 0.0 1.0 0.00 0.02 0.02 72 1016.9
20260508195018 56 0.0 2.0 0.00 0.02 0.02 71 1016.9
20260508194016 57 90 1.0 2.0 0.00 0.02 0.02 69 1016.8
20260508193036 58 113 1.0 3.0 0.00 0.02 0.02 68 1016.6
20260508192016 58 90 1.0 3.0 0.00 0.02 0.02 66 1016.5
20260508191104 59 113 2.0 4.0 0.00 0.02 0.02 64 1016.5
20260508190016 60 113 2.0 4.0 0.00 0.02 0.02 63 1016.3
20260508185016 60 113 2.0 4.0 0.00 0.02 0.02 62 1016.2
20260508184016 61 113 2.0 4.0 0.00 0.02 0.02 61 1016.2
20260508183017 61 113 3.0 5.0 0.00 0.02 0.02 60 1016.2
20260508182039 62 113 3.0 5.0 0.00 0.02 0.02 61 1016.1
20260508181038 62 113 3.0 7.0 0.00 0.02 0.02 60 1016.1
20260508180016 63 113 4.0 9.0 0.00 0.02 0.02 59 1016.1
20260508175016 63 135 4.0 9.0 0.00 0.02 0.02 60 1016.1
20260508174038 63 135 4.0 9.0 0.00 0.02 0.02 58 1016.1
20260508173016 63 113 5.0 10.0 0.00 0.02 0.02 58 1016.0
20260508172036 63 135 4.0 8.0 0.00 0.02 0.02 57 1016.0
20260508171018 64 135 6.0 12.0 0.00 0.02 0.02 54 1016.0
20260508170016 64 113 7.0 11.0 0.00 0.02 0.02 55 1016.0
20260508165016 64 135 7.0 11.0 0.00 0.02 0.02 53 1016.1
20260508164016 64 135 6.0 13.0 0.00 0.02 0.02 52 1016.0
20260508163016 65 135 4.0 11.0 0.00 0.02 0.02 49 1016.0
20260508162016 65 135 6.0 11.0 0.00 0.02 0.02 49 1016.0
20260508161018 65 135 6.0 10.0 0.00 0.02 0.02 49 1016.1
20260508160019 66 113 5.0 10.0 0.00 0.02 0.02 47 1016.1
20260508155017 65 113 7.0 11.0 0.00 0.02 0.02 51 1016.2
20260508154016 66 135 6.0 13.0 0.00 0.02 0.02 51 1016.2
20260508153017 66 135 6.0 12.0 0.00 0.02 0.02 54 1016.3
20260508152016 66 135 8.0 12.0 0.00 0.02 0.02 54 1016.3
20260508151016 66 135 8.0 12.0 0.00 0.02 0.02 55 1016.3
20260508150017 66 135 8.0 12.0 0.00 0.02 0.02 56 1016.3
20260508145037 66 135 5.0 13.0 0.00 0.02 0.02 58 1016.3
20260508144016 66 113 7.0 15.0 0.00 0.02 0.02 60 1016.2
20260508143016 65 135 8.0 14.0 0.00 0.02 0.02 59 1016.3
20260508142017 65 135 7.0 13.0 0.00 0.02 0.02 58 1016.2
20260508141017 67 135 6.0 13.0 0.00 0.02 0.02 56 1016.3
20260508140016 67 135 9.0 16.0 0.00 0.02 0.02 57 1016.3
20260508135017 66 113 9.0 15.0 0.00 0.02 0.02 58 1016.3
20260508134017 65 113 8.0 15.0 0.00 0.02 0.02 62 1016.3
20260508133016 64 135 6.0 11.0 0.00 0.02 0.02 67 1016.3
20260508132017 63 113 8.0 13.0 0.00 0.02 0.02 67 1016.4
20260508131015 63 135 8.0 13.0 0.00 0.02 0.02 67 1016.4
20260508130016 63 135 7.0 12.0 0.00 0.02 0.02 70 1016.3
20260508125015 62 113 8.0 13.0 0.00 0.02 0.02 71 1016.3
20260508124015 63 135 7.0 13.0 0.00 0.02 0.02 69 1016.3
20260508123016 64 135 7.0 12.0 0.00 0.02 0.02 66 1016.3
20260508122016 65 113 8.0 14.0 0.00 0.02 0.02 67 1016.3
20260508121016 65 113 7.0 12.0 0.00 0.02 0.02 70 1016.3
20260508120017 63 113 7.0 12.0 0.00 0.02 0.02 71 1016.3
20260508115016 63 135 7.0 14.0 0.00 0.02 0.02 71 1016.3
20260508114017 63 135 7.0 12.0 0.00 0.02 0.02 72 1016.3
20260508113016 62 135 6.0 12.0 0.00 0.02 0.02 76 1016.4
20260508112019 60 135 7.0 11.0 0.00 0.02 0.02 79 1016.4
20260508111017 60 135 6.0 12.0 0.00 0.02 0.02 78 1016.4
20260508110019 60 135 6.0 12.0 0.00 0.02 0.02 79 1016.4
20260508105017 59 135 5.0 12.0 0.00 0.02 0.02 79 1016.4
20260508104017 58 135 5.0 11.0 0.00 0.02 0.02 81 1016.5
20260508103017 58 113 6.0 10.0 0.00 0.02 0.02 81 1016.5
20260508102015 58 135 6.0 10.0 0.00 0.02 0.02 81 1016.4
20260508101019 59 135 6.0 12.0 0.00 0.02 0.02 80 1016.4